CAPE
0 0 0 0 0 0 0 0 0 0 0 0 0 0 0 0 0 0 0 0 0 0 0 0 0 0 0 0 0 160 252 244 270 299 286 314 332 361 436 470 480 528 690 1010 1327 1558 1742 1945 2176 2358 2500 2572 2594 2650 2688 2689 2718 2663 2572 2492 2344 2151 1838 1402 1269 1124 877 863 1192 1325 1530 985 124 0 0 0 0 0 1 7 17 18 27 20 14 20 29
0 0 0 0 0 0 0 0 0 0 0 0 0 0 0 0 0 0 0 0 0 0 0 0 0 0 0 0 0 168 222 293 339 342 342 364 376 381 393 452 492 527 602 714 986 1296 1587 1839 2055 2269 2418 2526 2636 2693 2701 2717 2727 2728 2652 2596 2520 2422 2285 2009 1590 1422 1111 662 1230 1096 1302 596 400 59 0 0 0 0 192 27 38 58 49 44 46 40 26
0 0 0 0 0 0 0 0 0 0 0 0 0 0 0 0 0 0 0 0 0 0 0 0 0 0 0 0 0 110 242 332 379 387 406 424 435 408 414 446 476 512 579 644 730 939 1295 1634 1939 2170 2335 2481 2609 2710 2724 2741 2729 2708 2694 2672 2635 2586 2499 2367 2190 1971 1655 1232 757 686 925 12 13 36 0 0 0 60 205 163 104 132 158 58 71 50 232
0 0 0 0 0 0 0 0 0 0 0 0 0 0 0 0 0 0 0 0 0 0 0 0 0 0 0 0 0 57 193 334 443 456 452 474 459 448 441 482 510 539 569 612 667 790 1001 1368 1734 1990 2195 2388 2550 2672 2722 2740 2728 2706 2712 2705 2664 2615 2508 2416 2376 2224 2034 1856 1612 1354 989 850 339 152 42 0 0 7 154 177 120 144 165 166 194 266 449
0 0 0 0 0 0 0 0 0 0 0 0 0 0 0 0 0 0 0 0 0 0 0 0 0 0 0 0 0 0 126 252 402 511 536 514 487 476 478 505 575 605 612 628 687 796 896 1128 1434 1708 1936 2153 2346 2499 2608 2656 2669 2691 2721 2729 2726 2647 2582 2505 2376 2241 2239 2145 2031 2038 1922 1624 676 448 193 48 0 157 263 336 172 115 136 148 216 329 530
0 0 0 0 0 0 0 0 0 0 0 0 0 0 0 0 0 0 0 0 0 0 0 0 0 0 0 0 0 0 74 176 261 418 509 487 470 475 517 558 612 629 638 672 732 794 873 958 1127 1366 1675 1957 2137 2271 2390 2458 2530 2598 2631 2669 2668 2660 2582 2548 2462 2436 2393 2262 2134 2015 1640 1306 969 491 338 158 48 0 67 271 308 233 206 238 286 400 575
0 0 0 0 0 0 0 0 0 0 0 0 0 0 0 0 0 0 0 0 0 0 0 0 0 0 0 0 0 0 0 97 184 255 366 473 492 478 488 498 542 624 678 741 848 875 884 927 1048 1285 1554 1760 1957 2076 2169 2251 2317 2420 2491 2524 2531 2550 2567 2514 2435 2438 2312 2238 2057 1392 976 1026 698 461 370 100 173 34 89 232 295 243 202 209 295 443 548
0 0 0 0 0 0 0 0 0 6 0 0 2 4 0 0 0 0 0 0 0 0 0 0 0 0 0 0 0 0 0 1 136 219 262 332 425 496 539 578 682 702 761 851 898 986 980 1043 1132 1363 1564 1701 1854 1970 2014 2114 2183 2247 2311 2343 2334 2342 2378 2370 2370 2290 2208 2136 1871 1784 1596 1124 553 330 342 5 240 192 264 229 292 313 212 211 308 416 435
4 0 0 0 0 7 1 0 4 0 4 5 6 8 9 9 9 6 0 0 0 0 1 4 1 0 0 0 0 0 0 0 123 234 298 451 588 742 877 906 955 970 1046 1107 1108 1094 1078 1058 1175 1372 1566 1743 1875 1938 1988 2058 2105 2148 2170 2190 2210 2222 2224 2204 2150 2064 2007 1954 1889 1888 1369 778 705 654 484 314 72 144 267 284 318 434 350 295 330 377 417
12 10 8 10 13 16 0 0 0 38 64 86 46 17 20 32 44 16 57 2 0 0 2 1 0 0 1 7 0 112 301 399 465 447 566 649 816 1014 1134 1270 1300 1316 1282 1221 1168 1143 1072 1007 1045 1217 1479 1729 1868 1932 1960 2008 2018 2056 2039 2048 2026 2028 2030 1989 1941 1896 1836 1790 1700 1632 1538 1105 791 621 423 101 108 126 96 224 262 320 466 362 339 339 378
34 35 22 20 82 16 0 46 0 74 70 118 96 20 29 68 66 132 92 35 8 10 19 10 0 19 86 104 196 367 514 599 630 657 861 1119 1146 993 1089 772 642 1063 1270 1233 1177 1024 1086 1051 970 1053 1338 1614 1762 1837 1831 1803 1790 1762 1732 1700 1697 1729 1713 1674 1598 1524 1434 1383 1344 1298 993 654 477 2 18 12 0 16 100 221 351 460 618 690 569 395 399
26 53 48 50 36 136 22 40 63 65 159 100 55 61 76 48 144 124 43 10 5 0 6 0 0 34 205 252 361 533 486 506 675 899 830 1030 1302 1275 908 426 396 860 1135 1210 1126 1143 1076 1107 1078 998 1228 1468 1591 1632 1644 1666 1652 1594 1562 1596 1548 1524 1460 1391 1320 1263 1220 1166 1135 1037 1002 829 592 30 1 0 0 46 122 212 294 398 550 672 748 670 558
40 55 68 66 59 156 140 96 74 57 66 79 32 60 156 140 131 148 128 125 65 12 12 7 0 0 233 304 336 392 548 701 806 1148 1485 1664 1447 1204 1036 1114 1233 1212 1213 1242 1165 1221 1166 1209 1173 1233 1336 1406 1431 1466 1536 1525 1524 1498 1476 1444 1452 1422 1354 1284 1223 1128 1068 1020 1000 903 786 497 136 0 0 0 13 140 263 371 505 646 776 847 869 801 743
48 76 81 84 68 43 114 102 72 61 40 15 71 194 112 158 131 141 120 53 58 0 0 10 0 122 196 226 242 429 484 483 560 774 1046 1140 1100 1016 974 1109 1172 1116 1143 1162 1111 1203 1227 1324 1367 1459 1468 1431 1429 1388 1446 1526 1563 1501 1496 1458 1388 1310 1229 1123 1011 940 896 878 848 804 685 415 300 44 0 0 30 236 438 570 513 428 534 667 748 406 328
44 57 72 75 233 81 362 294 184 36 46 139 0 86 134 147 149 121 59 118 155 145 0 16 180 160 164 254 362 397 384 432 466 519 744 977 1129 1092 978 897 884 914 928 954 912 1024 1044 1230 1453 1560 1541 1499 1487 1459 1396 1470 1456 1456 1400 1358 1223 1081 994 941 881 809 743 742 727 648 475 306 185 0 0 52 200 368 568 582 511 622 854 702 582 459 360
119 58 87 52 28 59 67 145 88 44 20 10 59 103 156 140 140 140 79 15 149 102 0 0 105 84 46 276 328 342 365 312 292 340 472 517 784 1044 978 953 895 932 944 954 1026 979 1115 1182 1278 1430 1513 1554 1549 1516 1476 1315 1252 1218 1136 1003 965 1082 1004 886 828 775 692 514 446 282 2 0 2 8 0 0 214 249 240 209 606 204 308 352 450 552 538
6 4 40 203 289 90 119 88 63 38 32 33 30 24 79 16 0 119 10 1 28 0 122 195 230 283 287 293 305 327 334 328 328 298 74 304 321 679 774 743 824 713 820 898 1046 1062 1148 1190 1254 1338 1460 1566 1537 1474 1340 1233 1190 1143 1093 1120 1176 1075 847 784 724 700 614 413 234 2 50 43 12 2 1 90 223 269 169 48 94 160 246 318 399 466 476
7 0 8 104 48 100 116 93 37 0 2 15 66 113 24 14 6 2 4 9 0 0 0 27 219 254 282 341 360 222 146 116 22 0 138 0 2 360 735 811 857 832 872 944 944 1021 1152 1270 1345 1440 1532 1612 1626 1579 1477 1384 1326 1208 1217 1178 1168 1078 775 675 658 578 527 412 184 18 12 57 113 305 273 279 188 96 84 112 159 215 212 213 325 408 233
0 7 0 0 50 96 68 39 98 64 0 0 96 153 21 22 4 0 0 0 10 0 0 0 12 34 52 50 40 244 29 0 24 6 1 0 0 128 473 789 982 894 889 888 912 922 1080 1288 1414 1546 1566 1602 1647 1614 1540 1431 1289 1125 1036 1062 1119 1106 922 696 618 539 462 395 2 0 0 0 149 157 30 27 40 92 138 228 317 334 349 384 316 123 44
0 9 3 1 0 12 17 24 9 39 66 90 4 0 39 27 40 3 0 0 0 0 0 0 0 0 0 10 6 0 0 0 0 0 0 41 96 211 249 495 714 704 722 806 744 686 767 898 995 1192 1437 1462 1530 1580 1518 1304 1067 935 960 1011 1078 993 850 726 541 451 413 385 256 317 194 43 4 0 0 0 0 46 20 8 33 64 227 187 77 23 0
0 0 0 0 0 3 0 12 7 0 0 70 26 0 0 0 132 95 37 26 0 0 0 0 0 0 0 0 0 0 0 169 176 63 2 10 316 305 298 115 568 688 647 623 558 452 510 542 578 730 1223 1363 1493 1270 1057 847 803 842 914 914 826 725 624 506 99 84 376 396 360 136 0 0 0 0 0 2 1 183 0 0 0 0 0 0 0 0 140
0 0 0 0 0 4 0 0 0 0 0 0 0 14 24 36 77 89 126 108 0 1 19 41 27 6 0 0 1 15 20 22 12 29 306 529 686 710 601 40 412 614 246 150 43 1 0 0 303 767 1020 1104 1060 859 626 586 622 665 646 563 469 201 4 10 6 2 0 0 0 0 0 0 0 0 7 6 27 64 62 0 0 0 0 0 2 90 159
0 0 0 0 0 0 0 0 0 0 0 0 0 0 0 0 0 0 0 0 0 26 45 4 9 2 6 61 42 20 16 23 194 608 693 773 856 1054 908 642 456 500 462 213 46 44 593 703 711 764 854 888 854 624 0 0 343 334 331 0 0 0 0 0 0 0 0 0 0 0 0 0 0 0 0 0 0 0 0 0 0 0 0 36 49 64 0
2 0 0 0 0 0 0 0 0 0 0 0 0 0 0 0 0 0 0 0 0 0 0 0 0 0 0 0 0 1 0 0 0 0 345 582 632 678 759 694 611 595 614 652 676 675 616 553 592 562 654 703 653 475 0 0 0 0 0 0 0 0 0 0 0 0 0 0 0 0 0 0 0 0 0 0 0 0 0 0 0 22 85 33 0 0 0
1 0 0 0 0 0 0 0 0 0 0 0 0 0 0 0 0 0 0 0 0 0 0 0 0 0 0 0 0 0 0 0 0 0 0 186 444 538 615 638 642 559 588 665 681 674 581 524 517 541 546 613 547 426 401 259 0 0 0 0 0 0 0 0 0 0 0 0 0 0 0 0 0 0 0 0 0 0 0 0 0 101 0 0 0 0 0
1 0 0 0 0 0 0 0 0 0 0 0 0 0 0 0 0 0 0 0 0 0 0 0 0 0 0 0 0 0 0 0 0 0 0 0 0 0 133 571 651 634 559 621 658 659 623 550 519 576 635 566 529 494 434 366 107 0 0 0 0 0 0 0 0 0 0 0 0 0 0 0 0 0 0 0 0 0 0 0 106 126 0 0 0 0 0
7 4 0 0 0 0 0 0 0 0 0 21 45 30 28 6 0 0 0 0 0 0 0 0 0 0 0 0 0 0 0 0 0 0 0 0 0 0 0 322 492 606 595 578 628 636 638 612 592 676 612 474 460 506 431 340 0 0 0 0 0 0 14 6 0 2 0 0 0 0 0 0 0 0 0 0 0 0 50 125 42 26 16 17 0 0 0
42 19 27 29 1 0 0 0 0 0 0 0 0 6 21 2 0 0 0 0 0 0 0 0 0 0 0 0 0 0 0 0 0 0 0 0 0 0 0 0 0 408 537 541 600 634 665 698 754 352 56 0 240 464 407 0 0 0 12 84 22 5 69 154 0 0 0 0 0 0 0 0 0 0 0 0 0 125 22 0 53 11 0 0 0 0 0
0 15 1 0 0 1 3 10 4 0 0 0 2 0 2 2 0 0 0 0 0 0 0 0 0 0 0 0 0 0 0 0 0 0 0 0 0 0 0 0 0 0 382 488 525 620 686 760 694 180 0 0 154 368 89 0 0 0 58 85 0 0 0 13 0 0 0 0 47 60 40 45 46 51 63 187 248 269 228 0 0 5 0 0 0 0 0
1 21 0 0 0 0 0 0 0 13 4 0 0 0 0 0 0 0 0 0 0 0 0 0 0 0 0 0 0 0 0 0 0 0 0 0 0 0 0 0 0 0 395 448 439 554 746 796 699 74 0 0 218 198 0 0 0 0 0 0 0 0 3 10 3 0 0 0 2 116 103 186 246 283 328 321 277 222 166 140 102 0 0 0 0 0 0
0 5 0 0 0 0 0 0 0 0 0 0 0 0 0 0 0 0 0 0 0 0 0 0 0 0 0 0 0 0 0 0 0 0 0 0 0 0 0 0 0 0 0 290 456 571 756 742 504 0 0 0 0 0 0 0 0 0 0 0 0 3 2 0 0 0 0 0 0 30 0 0 98 148 188 183 174 172 159 135 128 118 96 49 0 64 0
9 0 0 0 0 0 0 0 0 0 0 0 0 0 0 0 0 0 0 0 0 0 0 0 0 0 0 0 0 0 0 0 0 0 0 0 0 0 0 0 0 80 0 0 120 508 656 482 279 0 0 0 0 0 0 5 0 0 0 133 21 248 119 0 0 0 36 66 3 0 0 0 0 122 120 123 127 129 140 140 118 89 91 98 92 87 37
0 0 0 0 0 0 0 0 0 0 0 0 0 0 0 0 0 0 0 0 0 0 0 0 0 0 0 0 0 0 0 0 0 0 0 0 0 0 0 0 0 0 0 0 0 120 334 103 0 0 0 0 0 0 0 0 0 0 88 0 322 296 30 0 0 50 156 126 134 74 0 0 0 0 10 97 100 89 72 62 61 70 83 0 69 68 0
0 0 0 0 0 0 0 0 0 0 0 0 0 0 0 0 0 0 0 0 0 0 0 0 0 0 0 0 0 0 0 0 0 0 0 0 0 0 0 0 0 0 0 0 0 0 0 143 0 0 0 69 287 115 305 203 331 395 175 0 0 39 38 188 163 159 156 159 159 54 24 15 2 46 76 85 85 39 0 20 8 0 0 0 40 8 0
0 0 0 0 0 0 0 0 0 0 0 0 0 0 0 0 0 0 0 0 0 0 0 0 0 0 0 0 0 0 0 0 0 0 0 0 0 0 0 0 0 0 0 0 0 15 205 88 0 0 23 455 0 263 556 570 407 62 0 204 250 265 228 194 181 192 216 214 216 186 34 20 0 0 5 0 0 0 0 0 0 0 0 0 0 0 0
0 0 0 0 0 0 0 0 0 0 0 0 0 0 0 0 0 0 0 0 0 0 0 0 0 0 0 0 0 0 0 0 0 0 0 0 0 0 0 0 0 0 0 0 0 0 77 152 241 322 449 316 293 513 334 328 338 185 0 118 340 402 385 350 330 325 286 184 0 0 0 0 0 0 0 0 0 0 0 0 0 0 0 0 0 0 0
0 0 0 0 0 0 0 0 0 0 0 0 0 0 0 0 0 0 0 0 0 0 0 0 0 0 0 0 0 0 0 0 0 0 0 0 0 0 0 0 0 0 0 0 0 0 104 336 401 342 100 0 34 144 143 41 0 98 82 0 114 40 263 241 230 148 28 0 0 0 0 0 0 0 0 0 0 0 0 0 0 0 0 0 0 0 0
0 0 0 0 0 0 0 0 0 0 0 0 0 0 0 0 0 0 0 0 0 0 0 0 0 0 0 0 0 0 0 0 0 0 2 0 0 0 1 1 27 108 158 251 4 5 50 164 14 0 0 0 2 10 260 160 0 0 12 69 75 0 0 0 0 0 0 0 0 0 0 0 0 0 0 0 0 0 0 0 0 0 0 0 0 0 0
0 0 0 0 0 0 0 0 0 0 0 0 0 0 0 0 0 0 0 0 0 0 0 0 0 0 0 0 0 0 0 0 0 0 5 14 0 2 22 30 49 96 116 77 0 0 2 60 0 0 5 2 8 62 140 2 10 0 0 2 0 0 0 0 0 0 0 0 0 0 0 0 0 0 0 0 0 0 0 0 0 0 0 0 0 0 0
0 0 0 0 0 0 0 0 0 0 0 0 0 0 0 0 0 0 0 0 0 0 0 0 0 0 0 0 0 0 0 0 0 4 10 5 9 32 35 48 52 37 32 35 28 10 7 0 0 0 0 0 0 17 100 5 0 0 0 0 0 0 0 0 0 0 0 0 0 0 0 0 0 0 0 0 0 0 0 0 0 0 0 0 0 0 2
0 0 0 0 0 0 0 0 0 0 0 0 0 0 0 0 0 0 0 0 0 0 0 0 0 0 0 0 0 0 0 0 0 3 6 1 5 14 2 0 21 20 10 20 2 14 7 0 0 0 0 1 0 0 0 0 0 0 0 0 0 0 0 0 0 0 0 0 0 0 0 0 0 0 0 0 0 0 0 0 0 0 0 0 0 2 7
0 0 0 0 0 0 0 0 0 0 0 0 0 0 0 0 0 0 0 0 0 0 0 0 0 1 0 0 0 0 0 0 0 0 0 0 0 0 0 0 0 12 70 82 52 14 0 0 0 2 2 1 0 0 0 0 0 0 0 0 0 0 0 0 0 0 0 0 0 0 0 0 0 0 0 0 0 6 8 4 4 0 0 0 0 4 12
0 0 0 0 0 0 0 0 0 0 0 0 0 0 0 0 0 0 0 0 0 0 0 0 0 0 0 0 0 0 0 0 0 0 0 0 0 0 0 0 0 0 106 2 0 0 0 0 0 0 0 0 0 0 0 0 0 0 0 0 0 0 0 0 0 0 0 0 0 0 0 0 0 0 0 7 13 18 22 22 19 17 14 12 2 9 14
0 0 0 0 0 0 0 0 0 0 0 0 0 0 0 0 0 0 0 0 0 0 0 0 0 0 0 0 0 0 0 0 0 0 0 0 0 0 0 0 0 173 161 0 0 0 0 0 0 0 0 0 0 0 0 0 0 0 0 0 0 0 0 0 0 0 0 0 0 0 0 0 0 0 0 0 0 0 2 10 22 32 33 28 24 23 22
0 0 0 0 0 0 0 0 0 0 0 0 0 0 0 0 0 0 0 0 0 0 0 0 0 0 0 0 0 0 0 0 0 0 0 0 0 0 0 2 37 178 54 0 0 0 0 0 0 0 7 0 0 0 0 0 0 0 0 0 0 0 0 0 0 0 0 0 0 0 0 0 0 0 0 0 0 0 0 0 0 2 22 35 42 37 32
0 0 0 0 0 0 0 0 0 0 0 0 0 0 0 0 0 0 0 0 0 0 0 0 0 0 0 0 0 0 0 14 1 0 0 0 0 0 0 0 19 75 49 0 0 0 0 0 0 8 6 0 0 0 0 0 0 0 0 0 0 0 0 0 0 0 0 0 0 0 0 0 0 0 0 0 0 0 0 0 0 0 0 9 34 45 48
0 0 0 0 0 0 0 0 0 0 0 0 0 0 0 0 0 0 0 0 0 0 0 0 0 0 0 0 0 0 6 0 0 0 0 0 0 0 18 134 271 214 164 0 0 0 0 0 12 6 0 0 0 0 0 0 0 0 0 0 0 0 0 0 0 0 0 0 0 0 0 0 0 0 0 0 0 0 0 0 0 0 0 0 6 32 43
0 0 0 0 0 0 0 0 0 0 0 0 0 0 0 0 0 0 0 0 0 0 0 0 0 0 0 0 0 0 0 0 0 0 0 0 0 0 0 159 233 353 214 4 0 0 0 16 9 0 0 0 0 0 0 0 0 0 0 0 0 0 0 0 0 0 0 0 0 0 0 0 0 0 0 0 0 0 0 0 0 0 0 0 0 4 21
0 0 0 0 0 0 0 0 0 0 0 0 0 0 0 0 0 0 0 0 0 0 0 0 0 0 0 0 0 0 0 0 0 0 0 0 0 0 0 24 353 476 123 0 0 0 0 0 0 0 0 0 0 0 0 0 0 0 0 0 0 0 0 0 0 0 0 0 0 0 0 0 0 0 0 0 0 0 0 0 0 0 0 0 0 0 0
0 0 0 0 0 0 0 0 0 0 0 0 0 0 0 0 0 0 0 0 0 20 2 0 0 0 0 0 0 0 0 0 0 0 0 0 0 0 0 0 95 325 95 14 0 0 0 0 0 0 0 0 0 0 0 0 0 0 0 0 0 0 0 0 0 0 0 0 0 0 0 0 0 0 0 0 0 0 0 0 0 0 0 0 0 0 0
0 0 0 1 3 5 0 0 0 0 0 0 0 0 5 6 0 6 2 9 10 12 8 0 0 0 0 0 0 0 0 0 0 81 82 3 0 0 2 0 4 138 83 38 0 0 0 0 0 0 0 0 0 0 0 0 0 0 0 0 0 0 0 0 0 0 0 0 0 0 0 0 0 0 0 0 0 0 0 0 0 0 0 0 0 0 0
0 0 0 0 0 0 0 0 0 0 0 0 0 0 0 0 2 1 0 31 28 5 3 2 6 0 0 0 0 0 0 2 2 0 103 173 32 2 4 78 11 19 48 40 35 0 0 0 0 0 0 0 0 0 0 0 0 0 0 0 0 0 0 0 0 0 0 0 0 0 0 0 0 0 0 0 0 0 0 0 0 0 0 0 0 0 0
Wind_Speed
nan nan nan nan nan nan nan nan nan nan nan nan nan nan nan nan nan nan nan nan nan nan nan nan nan nan nan nan nan 17 11 13 20 22 20 15 13 15 14 13 15 17 18 18 17 17 17 14 11 12 13 15 17 19 22 26 30 32 35 36 37 38 40 39 39 38 42 49 53 50 54 54 50 nan nan nan nan nan nan nan nan nan nan nan nan nan nan
nan nan nan nan nan nan nan nan nan nan nan nan nan nan nan nan nan nan nan nan nan nan nan nan nan nan nan nan nan 20 17 15 15 17 16 13 12 13 15 16 17 18 19 20 21 22 22 21 19 18 19 21 23 24 26 28 30 32 35 36 37 37 37 37 36 37 46 51 49 47 55 55 47 nan nan nan nan nan 43 nan nan nan nan nan nan nan nan
nan nan nan nan nan nan nan nan nan nan nan nan nan nan nan nan nan nan nan nan nan nan nan nan nan nan nan nan nan 17 13 17 18 16 16 15 13 14 16 18 19 19 21 21 23 24 26 28 28 27 27 28 29 29 31 33 34 36 37 36 37 37 37 37 41 47 54 56 51 50 53 nan nan nan nan nan nan nan 49 47 41 35 32 nan nan nan 31
nan nan nan nan nan nan nan nan nan nan nan nan nan nan nan nan nan nan nan nan nan nan nan nan nan nan nan nan nan nan 17 18 18 18 17 16 15 16 18 19 21 23 24 26 27 27 29 30 30 31 32 33 34 34 35 36 36 38 38 38 40 40 40 42 46 51 55 58 57 55 54 52 52 50 nan nan nan nan 47 48 47 43 36 34 36 37 36
nan nan nan nan nan nan nan nan nan nan nan nan nan nan nan nan nan nan nan nan nan nan nan nan nan nan nan nan nan nan 18 19 20 21 19 19 18 18 20 21 22 24 27 27 27 28 29 31 32 33 35 36 35 36 39 38 40 41 41 40 40 41 43 47 50 52 55 56 58 59 59 56 54 51 48 nan nan 47 45 45 49 46 39 39 41 41 38
nan nan nan nan nan nan nan nan nan nan nan nan nan nan nan nan nan nan nan nan nan nan nan nan nan nan nan nan nan nan nan 20 19 19 19 20 21 21 21 22 24 26 28 30 30 31 31 32 33 35 38 37 36 38 41 42 42 42 43 41 42 45 48 51 53 54 56 56 57 60 60 58 54 54 53 53 nan nan nan 51 51 48 43 40 39 37 34
nan nan nan nan nan nan nan nan nan nan nan nan nan nan nan nan nan nan nan nan nan nan nan nan nan nan nan nan nan nan nan nan 24 22 25 27 27 26 25 25 27 29 32 35 34 32 31 33 35 38 37 38 40 42 44 44 43 45 45 45 46 49 51 53 55 56 56 56 57 61 60 58 52 50 52 nan 53 nan nan 58 53 47 41 35 33 33 32
nan nan nan nan nan nan nan nan nan nan nan nan nan nan nan nan nan nan nan nan nan nan nan nan nan nan nan nan nan nan nan nan 31 31 26 27 29 28 25 29 31 34 35 36 36 33 33 36 37 38 39 42 44 44 46 46 46 46 47 48 50 52 53 55 58 59 60 63 66 65 65 61 54 54 54 nan 53 52 57 55 47 38 31 29 31 34 33
nan nan nan nan nan nan nan nan nan nan nan nan nan nan nan nan nan nan nan nan nan nan nan nan nan nan nan nan nan nan nan nan 31 29 29 30 31 32 31 32 33 34 36 36 35 36 37 38 40 41 44 46 47 50 50 48 49 49 50 50 53 56 57 58 59 61 62 63 63 65 63 61 55 52 49 50 nan 55 52 40 30 26 25 29 33 36 34
nan nan nan nan nan nan nan nan nan nan nan nan nan nan nan nan nan nan nan nan nan nan nan nan nan nan nan nan nan 39 40 35 33 35 36 38 40 39 39 39 39 39 39 39 39 38 41 42 43 45 46 47 49 52 52 51 51 51 51 52 56 59 58 58 58 58 60 61 61 62 61 59 56 50 44 44 49 49 nan 25 23 25 28 30 33 33 31
nan nan nan nan nan nan nan nan nan nan nan 44 nan nan nan nan nan 44 nan nan nan nan nan nan nan nan nan 42 38 38 36 36 37 41 44 47 45 43 42 42 45 44 43 44 43 43 45 44 42 45 47 49 49 50 52 52 53 53 51 54 59 59 57 56 56 58 59 59 58 57 57 55 55 nan nan nan nan nan 27 29 33 37 37 33 30 30 32
nan nan nan nan nan 33 nan nan nan nan 48 45 nan nan nan nan 44 44 nan nan nan nan nan nan nan nan 50 48 45 39 38 40 40 42 46 48 49 47 46 47 46 47 47 48 47 45 43 43 45 45 48 48 47 47 49 52 54 54 56 59 61 58 57 57 58 60 61 59 54 50 45 43 46 nan nan nan nan nan 37 40 41 40 36 31 30 33 33
nan nan nan nan nan 30 30 nan nan nan nan nan nan nan 39 41 44 46 48 49 nan nan nan nan nan nan 46 43 42 40 39 52 54 52 48 44 44 47 48 48 48 50 49 50 49 47 45 47 50 50 52 52 52 52 53 54 56 57 59 61 60 58 57 59 60 61 60 57 54 52 47 41 39 nan nan nan nan 44 43 43 43 40 34 31 35 37 37
nan nan nan nan nan nan 31 34 nan nan nan nan nan 41 44 44 49 51 53 nan nan nan nan nan nan 48 48 48 47 52 55 57 57 57 52 50 51 49 49 50 50 50 50 52 52 50 48 51 51 53 55 57 56 56 56 58 60 61 62 63 62 60 60 60 59 60 59 54 48 45 41 37 37 nan nan nan nan 43 42 44 43 39 36 38 38 41 40
nan nan nan nan 41 nan 43 40 37 nan nan 38 nan nan 48 46 50 54 nan 57 58 59 nan nan 54 54 55 53 52 50 51 58 62 60 57 56 54 50 48 50 50 51 52 51 50 50 50 53 54 55 58 59 58 58 60 62 63 64 64 64 63 61 60 59 59 59 58 55 48 43 41 38 36 nan nan nan 41 42 43 43 41 40 39 42 46 45 36
31 nan nan nan nan nan nan 38 nan nan nan nan nan 42 46 44 48 52 nan nan 48 50 nan nan 54 nan nan 50 47 47 46 49 54 56 53 52 52 50 50 51 50 51 51 49 49 50 51 53 56 58 62 63 62 62 64 63 65 65 65 61 58 57 56 56 57 56 55 54 49 44 nan nan nan nan nan nan 40 44 45 41 35 37 40 45 44 36 29
nan nan nan 38 42 nan 45 nan nan nan nan nan nan nan nan nan nan 41 nan nan nan nan 52 53 51 50 45 41 39 42 40 43 46 48 nan 48 48 47 51 52 51 51 49 49 50 53 53 56 58 61 65 68 67 66 64 65 65 63 59 54 52 52 53 53 53 51 51 51 48 nan nan nan nan nan nan nan 43 46 46 nan nan 43 43 41 35 30 29
nan nan nan 38 nan 49 54 nan nan nan nan nan nan 41 nan nan nan nan nan nan nan nan nan nan 48 46 43 45 42 41 43 44 nan nan 47 nan nan 45 47 48 48 48 48 49 52 55 56 56 59 61 64 67 69 66 64 61 60 58 54 52 51 51 50 49 48 48 48 46 45 nan nan nan 40 40 42 43 43 nan nan 44 45 41 36 33 30 31 34
nan nan nan nan nan nan nan nan nan nan nan nan nan 40 nan nan nan nan nan nan nan nan nan nan nan nan nan nan nan 45 nan nan nan nan nan nan nan 43 45 43 45 49 50 51 53 54 56 57 60 61 62 62 64 62 58 56 56 55 53 52 51 48 46 44 44 44 44 43 nan nan nan nan 40 42 nan nan nan nan 41 43 40 32 28 31 37 41 nan
nan nan nan nan nan nan nan nan nan nan nan nan nan nan nan nan nan nan nan nan nan nan nan nan nan nan nan nan nan nan nan nan nan nan nan nan nan 43 43 45 50 51 52 55 58 59 60 59 62 62 62 63 61 56 52 52 52 50 49 47 45 43 43 43 42 43 44 44 44 43 43 nan nan nan nan nan nan nan nan nan nan nan 33 43 nan nan nan
nan nan nan nan nan nan nan nan nan nan nan nan nan nan nan nan 53 nan nan nan nan nan nan nan nan nan nan nan nan nan nan 48 49 nan nan nan 47 43 41 42 46 53 52 54 57 60 60 62 65 66 63 58 50 48 47 47 45 45 44 43 42 42 42 42 nan nan 44 45 46 47 nan nan nan nan nan nan nan 35 nan nan nan nan nan nan nan nan 52
nan nan nan nan nan nan nan nan nan nan nan nan nan nan nan nan nan nan 47 49 nan nan nan nan nan nan nan nan nan nan nan nan nan nan 45 45 44 43 42 nan 41 43 47 50 nan nan nan nan 55 53 47 42 39 39 41 43 45 47 46 46 45 44 nan nan nan nan nan nan nan nan nan nan nan nan nan nan nan nan nan nan nan nan nan nan nan nan 50
nan nan nan nan nan nan nan nan nan nan nan nan nan nan nan nan nan nan nan nan nan nan nan nan nan nan nan nan nan nan nan nan 44 42 41 41 42 41 40 40 39 38 42 42 nan nan 47 44 40 37 35 34 36 38 nan nan 47 48 49 nan nan nan nan nan nan nan nan nan nan nan nan nan nan nan nan nan nan nan nan nan nan nan nan nan nan nan nan
nan nan nan nan nan nan nan nan nan nan nan nan nan nan nan nan nan nan nan nan nan nan nan nan nan nan nan nan nan nan nan nan nan nan 43 38 35 35 38 39 39 40 41 42 44 45 41 37 35 34 35 35 37 40 nan nan nan nan nan nan nan nan nan nan nan nan nan nan nan nan nan nan nan nan nan nan nan nan nan nan nan nan nan nan nan nan nan
nan nan nan nan nan nan nan nan nan nan nan nan nan nan nan nan nan nan nan nan nan nan nan nan nan nan nan nan nan nan nan nan nan nan nan 37 35 34 35 39 40 38 39 40 42 42 40 38 36 35 36 37 38 41 41 41 nan nan nan nan nan nan nan nan nan nan nan nan nan nan nan nan nan nan nan nan nan nan nan nan nan 52 nan nan nan nan nan
nan nan nan nan nan nan nan nan nan nan nan nan nan nan nan nan nan nan nan nan nan nan nan nan nan nan nan nan nan nan nan nan nan nan nan nan nan nan 34 36 36 37 38 39 40 40 39 38 38 38 39 39 39 39 38 40 41 nan nan nan nan nan nan nan nan nan nan nan nan nan nan nan nan nan nan nan nan nan nan nan 49 46 nan nan nan nan nan
nan nan nan nan nan nan nan nan nan nan nan nan nan nan nan nan nan nan nan nan nan nan nan nan nan nan nan nan nan nan nan nan nan nan nan nan nan nan nan 33 37 38 40 40 39 38 39 39 38 38 38 39 41 42 43 43 nan nan nan nan nan nan nan nan nan nan nan nan nan nan nan nan nan nan nan nan nan nan nan 49 nan nan nan nan nan nan nan
nan nan nan nan nan nan nan nan nan nan nan nan nan nan nan nan nan nan nan nan nan nan nan nan nan nan nan nan nan nan nan nan nan nan nan nan nan nan nan nan nan 41 41 41 40 39 39 39 41 41 nan nan 43 45 46 nan nan nan nan nan nan nan nan 49 nan nan nan nan nan nan nan nan nan nan nan nan nan 51 nan nan nan nan nan nan nan nan nan
nan nan nan nan nan nan nan nan nan nan nan nan nan nan nan nan nan nan nan nan nan nan nan nan nan nan nan nan nan nan nan nan nan nan nan nan nan nan nan nan nan nan 40 40 41 41 42 42 43 43 nan nan 44 46 nan nan nan nan nan nan nan nan nan nan nan nan nan nan nan nan nan nan nan nan nan 51 52 51 49 nan nan nan nan nan nan nan nan
nan nan nan nan nan nan nan nan nan nan nan nan nan nan nan nan nan nan nan nan nan nan nan nan nan nan nan nan nan nan nan nan nan nan nan nan nan nan nan nan nan nan 40 40 41 42 42 42 43 nan nan nan 43 46 nan nan nan nan nan nan nan nan nan nan nan nan nan nan nan 53 51 50 49 49 50 51 51 51 51 50 51 nan nan nan nan nan nan
nan nan nan nan nan nan nan nan nan nan nan nan nan nan nan nan nan nan nan nan nan nan nan nan nan nan nan nan nan nan nan nan nan nan nan nan nan nan nan nan nan nan nan 39 40 42 42 42 42 nan nan nan nan nan nan nan nan nan nan nan nan nan nan nan nan nan nan nan nan nan nan nan nan 48 50 50 50 49 50 50 51 51 nan nan nan nan nan
nan nan nan nan nan nan nan nan nan nan nan nan nan nan nan nan nan nan nan nan nan nan nan nan nan nan nan nan nan nan nan nan nan nan nan nan nan nan nan nan nan nan nan nan 41 43 43 43 40 nan nan nan nan nan nan nan nan nan nan 48 nan 47 48 nan nan nan nan nan nan nan nan nan nan 47 48 48 48 48 49 48 47 nan nan nan nan nan nan
nan nan nan nan nan nan nan nan nan nan nan nan nan nan nan nan nan nan nan nan nan nan nan nan nan nan nan nan nan nan nan nan nan nan nan nan nan nan nan nan nan nan nan nan nan 44 44 42 nan nan nan nan nan nan nan nan nan nan nan nan 46 45 nan nan nan nan 50 48 45 nan nan nan nan nan nan nan 46 nan nan nan nan nan nan nan nan nan nan
nan nan nan nan nan nan nan nan nan nan nan nan nan nan nan nan nan nan nan nan nan nan nan nan nan nan nan nan nan nan nan nan nan nan nan nan nan nan nan nan nan nan nan nan nan nan nan 45 nan nan nan nan 52 52 51 50 50 48 49 nan nan nan nan 48 48 47 47 46 44 nan nan nan nan nan nan nan nan nan nan nan nan nan nan nan nan nan nan
nan nan nan nan nan nan nan nan nan nan nan nan nan nan nan nan nan nan nan nan nan nan nan nan nan nan nan nan nan nan nan nan nan nan nan nan nan nan nan nan nan nan nan nan nan nan 47 nan nan nan nan 51 nan 52 49 48 47 nan nan 48 48 46 45 44 46 48 48 45 44 45 nan nan nan nan nan nan nan nan nan nan nan nan nan nan nan nan nan
nan nan nan nan nan nan nan nan nan nan nan nan nan nan nan nan nan nan nan nan nan nan nan nan nan nan nan nan nan nan nan nan nan nan nan nan nan nan nan nan nan nan nan nan nan nan nan 51 57 58 52 51 53 53 50 48 48 47 nan 43 44 43 43 45 47 47 44 43 nan nan nan nan nan nan nan nan nan nan nan nan nan nan nan nan nan nan nan
nan nan nan nan nan nan nan nan nan nan nan nan nan nan nan nan nan nan nan nan nan nan nan nan nan nan nan nan nan nan nan nan nan nan nan nan nan nan nan nan nan nan nan nan nan nan 47 51 57 60 51 nan nan 48 50 nan nan nan nan nan 40 nan 44 45 45 44 nan nan nan nan nan nan nan nan nan nan nan nan nan nan nan nan nan nan nan nan nan
nan nan nan nan nan nan nan nan nan nan nan nan nan nan nan nan nan nan nan nan nan nan nan nan nan nan nan nan nan nan nan nan nan nan nan nan nan nan nan nan nan 47 49 49 nan nan nan 52 nan nan nan nan nan nan 48 48 nan nan nan nan nan nan nan nan nan nan nan nan nan nan nan nan nan nan nan nan nan nan nan nan nan nan nan nan nan nan nan
nan nan nan nan nan nan nan nan nan nan nan nan nan nan nan nan nan nan nan nan nan nan nan nan nan nan nan nan nan nan nan nan nan nan nan nan nan nan nan nan nan nan 44 nan nan nan nan nan nan nan nan nan nan nan 46 nan nan nan nan nan nan nan nan nan nan nan nan nan nan nan nan nan nan nan nan nan nan nan nan nan nan nan nan nan nan nan nan
nan nan nan nan nan nan nan nan nan nan nan nan nan nan nan nan nan nan nan nan nan nan nan nan nan nan nan nan nan nan nan nan nan nan nan nan nan nan nan nan nan nan nan nan nan nan nan nan nan nan nan nan nan nan 44 nan nan nan nan nan nan nan nan nan nan nan nan nan nan nan nan nan nan nan nan nan nan nan nan nan nan nan nan nan nan nan nan
nan nan nan nan nan nan nan nan nan nan nan nan nan nan nan nan nan nan nan nan nan nan nan nan nan nan nan nan nan nan nan nan nan nan nan nan nan nan nan nan nan nan nan nan nan nan nan nan nan nan nan nan nan nan nan nan nan nan nan nan nan nan nan nan nan nan nan nan nan nan nan nan nan nan nan nan nan nan nan nan nan nan nan nan nan nan nan
nan nan nan nan nan nan nan nan nan nan nan nan nan nan nan nan nan nan nan nan nan nan nan nan nan nan nan nan nan nan nan nan nan nan nan nan nan nan nan nan nan nan nan nan nan nan nan nan nan nan nan nan nan nan nan nan nan nan nan nan nan nan nan nan nan nan nan nan nan nan nan nan nan nan nan nan nan nan nan nan nan nan nan nan nan nan nan
nan nan nan nan nan nan nan nan nan nan nan nan nan nan nan nan nan nan nan nan nan nan nan nan nan nan nan nan nan nan nan nan nan nan nan nan nan nan nan nan nan nan 24 nan nan nan nan nan nan nan nan nan nan nan nan nan nan nan nan nan nan nan nan nan nan nan nan nan nan nan nan nan nan nan nan nan nan nan nan nan nan nan nan nan nan nan nan
nan nan nan nan nan nan nan nan nan nan nan nan nan nan nan nan nan nan nan nan nan nan nan nan nan nan nan nan nan nan nan nan nan nan nan nan nan nan nan nan nan 18 23 nan nan nan nan nan nan nan nan nan nan nan nan nan nan nan nan nan nan nan nan nan nan nan nan nan nan nan nan nan nan nan nan nan nan nan nan nan nan nan nan nan nan nan nan
nan nan nan nan nan nan nan nan nan nan nan nan nan nan nan nan nan nan nan nan nan nan nan nan nan nan nan nan nan nan nan nan nan nan nan nan nan nan nan nan nan 17 nan nan nan nan nan nan nan nan nan nan nan nan nan nan nan nan nan nan nan nan nan nan nan nan nan nan nan nan nan nan nan nan nan nan nan nan nan nan nan nan nan nan nan nan nan
nan nan nan nan nan nan nan nan nan nan nan nan nan nan nan nan nan nan nan nan nan nan nan nan nan nan nan nan nan nan nan nan nan nan nan nan nan nan nan nan nan nan nan nan nan nan nan nan nan nan nan nan nan nan nan nan nan nan nan nan nan nan nan nan nan nan nan nan nan nan nan nan nan nan nan nan nan nan nan nan nan nan nan nan nan nan nan
nan nan nan nan nan nan nan nan nan nan nan nan nan nan nan nan nan nan nan nan nan nan nan nan nan nan nan nan nan nan nan nan nan nan nan nan nan nan nan 20 23 23 24 nan nan nan nan nan nan nan nan nan nan nan nan nan nan nan nan nan nan nan nan nan nan nan nan nan nan nan nan nan nan nan nan nan nan nan nan nan nan nan nan nan nan nan nan
nan nan nan nan nan nan nan nan nan nan nan nan nan nan nan nan nan nan nan nan nan nan nan nan nan nan nan nan nan nan nan nan nan nan nan nan nan nan nan 22 23 24 25 nan nan nan nan nan nan nan nan nan nan nan nan nan nan nan nan nan nan nan nan nan nan nan nan nan nan nan nan nan nan nan nan nan nan nan nan nan nan nan nan nan nan nan nan
nan nan nan nan nan nan nan nan nan nan nan nan nan nan nan nan nan nan nan nan nan nan nan nan nan nan nan nan nan nan nan nan nan nan nan nan nan nan nan nan 19 23 24 nan nan nan nan nan nan nan nan nan nan nan nan nan nan nan nan nan nan nan nan nan nan nan nan nan nan nan nan nan nan nan nan nan nan nan nan nan nan nan nan nan nan nan nan
nan nan nan nan nan nan nan nan nan nan nan nan nan nan nan nan nan nan nan nan nan nan nan nan nan nan nan nan nan nan nan nan nan nan nan nan nan nan nan nan nan 19 nan nan nan nan nan nan nan nan nan nan nan nan nan nan nan nan nan nan nan nan nan nan nan nan nan nan nan nan nan nan nan nan nan nan nan nan nan nan nan nan nan nan nan nan nan
nan nan nan nan nan nan nan nan nan nan nan nan nan nan nan nan nan nan nan nan nan nan nan nan nan nan nan nan nan nan nan nan nan nan nan nan nan nan nan nan nan 17 nan nan nan nan nan nan nan nan nan nan nan nan nan nan nan nan nan nan nan nan nan nan nan nan nan nan nan nan nan nan nan nan nan nan nan nan nan nan nan nan nan nan nan nan nan
nan nan nan nan nan nan nan nan nan nan nan nan nan nan nan nan nan nan nan nan nan nan nan nan nan nan nan nan nan nan nan nan nan nan 17 17 nan nan nan nan nan nan nan nan nan nan nan nan nan nan nan nan nan nan nan nan nan nan nan nan nan nan nan nan nan nan nan nan nan nan nan nan nan nan nan nan nan nan nan nan nan nan nan nan nan nan nan
Wind_Direction
nan nan nan nan nan nan nan nan nan nan nan nan nan nan nan nan nan nan nan nan nan nan nan nan nan nan nan nan nan 336 321 265 253 252 259 274 281 276 289 314 322 326 330 335 334 333 337 331 330 335 330 329 322 325 326 323 324 326 324 328 332 330 328 329 329 324 311 295 289 298 306 305 299 nan nan nan nan nan nan nan nan nan nan nan nan nan nan
nan nan nan nan nan nan nan nan nan nan nan nan nan nan nan nan nan nan nan nan nan nan nan nan nan nan nan nan nan 267 271 275 274 264 266 279 286 303 320 325 330 326 328 324 325 324 323 325 326 322 322 324 326 328 328 324 325 326 325 333 334 331 330 328 318 302 289 288 292 302 308 310 306 nan nan nan nan nan 283 nan nan nan nan nan nan nan nan
nan nan nan nan nan nan nan nan nan nan nan nan nan nan nan nan nan nan nan nan nan nan nan nan nan nan nan nan nan 297 291 260 263 270 277 288 308 320 321 321 318 314 309 307 307 313 319 322 326 324 324 323 322 325 325 326 329 330 330 330 331 332 332 323 313 305 304 308 316 314 314 nan nan nan nan nan nan nan 289 286 284 286 289 nan nan nan 296
nan nan nan nan nan nan nan nan nan nan nan nan nan nan nan nan nan nan nan nan nan nan nan nan nan nan nan nan nan nan 258 254 262 279 294 308 316 316 316 310 301 299 302 304 309 317 319 317 317 319 319 319 320 325 323 324 325 325 327 328 332 334 331 319 311 313 316 321 325 321 314 305 297 298 nan nan nan nan 291 286 280 278 282 287 292 292 288
nan nan nan nan nan nan nan nan nan nan nan nan nan nan nan nan nan nan nan nan nan nan nan nan nan nan nan nan nan nan 248 248 277 300 317 321 309 302 300 297 298 301 301 303 306 305 301 307 310 313 312 313 320 321 320 318 315 322 328 330 327 325 322 319 316 316 317 319 322 320 311 301 299 297 299 nan nan 300 299 292 282 279 279 284 291 292 286
nan nan nan nan nan nan nan nan nan nan nan nan nan nan nan nan nan nan nan nan nan nan nan nan nan nan nan nan nan nan nan 257 269 274 276 286 287 284 281 283 286 285 284 287 291 297 302 306 310 307 309 315 315 312 312 310 315 320 323 324 321 320 320 320 317 317 319 319 319 312 302 296 297 301 301 301 nan nan nan 292 283 277 278 286 290 291 285
nan nan nan nan nan nan nan nan nan nan nan nan nan nan nan nan nan nan nan nan nan nan nan nan nan nan nan nan nan nan nan nan 238 255 275 279 277 278 279 278 278 281 282 282 288 297 306 308 301 300 303 306 302 304 309 311 313 315 319 319 317 316 318 317 317 317 316 311 301 298 303 303 305 305 305 nan 298 nan nan 287 285 280 282 289 290 288 281
nan nan nan nan nan nan nan nan nan nan nan nan nan nan nan nan nan nan nan nan nan nan nan nan nan nan nan nan nan nan nan nan 254 258 264 270 272 276 276 274 273 277 284 291 296 303 300 295 296 298 300 298 302 305 306 307 308 312 314 315 315 314 315 316 317 315 310 306 309 312 312 316 321 319 311 nan 302 291 282 286 288 284 285 293 292 283 276
nan nan nan nan nan nan nan nan nan nan nan nan nan nan nan nan nan nan nan nan nan nan nan nan nan nan nan nan nan nan nan nan 241 259 260 261 261 263 266 272 279 280 280 285 289 285 287 292 292 294 293 298 302 301 304 304 305 310 313 314 315 315 315 315 315 312 310 310 310 310 312 319 320 313 306 298 nan 286 285 294 303 302 306 306 292 279 273
nan nan nan nan nan nan nan nan nan nan nan nan nan nan nan nan nan nan nan nan nan nan nan nan nan nan nan nan nan 220 223 232 241 248 252 248 248 251 257 258 262 264 265 267 271 279 282 284 285 287 293 298 302 303 303 303 306 310 313 316 314 313 312 311 310 307 306 307 310 313 314 317 312 301 294 290 285 281 nan 307 315 314 305 299 286 276 275
nan nan nan nan nan nan nan nan nan nan nan 216 nan nan nan nan nan 216 nan nan nan nan nan nan nan nan nan 236 231 226 231 239 246 249 245 247 253 257 260 262 261 262 266 270 272 273 276 280 283 286 291 296 300 303 304 303 305 308 309 305 306 310 309 308 305 303 302 303 307 309 309 311 309 nan nan nan nan nan 306 309 307 304 304 300 288 277 277
nan nan nan nan nan 235 nan nan nan nan 210 216 nan nan nan nan 217 219 nan nan nan nan nan nan nan nan 250 245 237 234 240 247 245 249 253 252 250 250 255 256 264 266 268 270 272 275 278 275 274 281 287 292 294 294 294 296 298 299 300 304 306 305 304 304 302 299 299 299 298 298 299 299 295 nan nan nan nan nan 303 299 302 306 307 301 290 279 279
nan nan nan nan nan 227 226 nan nan nan nan nan nan nan 229 226 223 224 228 233 nan nan nan nan nan nan 246 243 239 237 243 244 241 240 242 246 249 253 254 256 261 264 267 270 270 271 272 274 274 275 279 283 288 288 288 291 295 295 298 301 301 299 299 300 298 297 296 298 299 300 304 310 307 nan nan nan nan 298 295 297 304 309 305 294 286 286 285
nan nan nan nan nan nan 220 211 nan nan nan nan nan 223 227 229 229 227 229 nan nan nan nan nan nan 239 239 241 240 240 241 244 243 241 242 244 245 247 251 252 255 258 260 263 264 265 271 277 279 283 286 287 289 288 286 290 295 296 297 298 297 295 296 298 298 296 295 295 297 301 301 298 299 nan nan nan nan 297 298 302 308 309 301 290 288 288 287
nan nan nan nan 225 nan 214 195 219 nan nan 239 nan nan 229 234 241 239 nan 236 239 242 nan nan 244 244 243 242 242 243 243 245 243 242 243 246 247 246 248 252 255 259 261 265 268 271 276 281 284 287 287 287 286 285 286 291 294 295 296 296 294 294 295 297 298 297 296 297 298 297 295 293 291 nan nan nan 295 298 301 304 305 303 301 291 281 281 283
195 nan nan nan nan nan nan 212 nan nan nan nan nan 243 241 237 243 247 nan nan 243 246 nan nan 246 nan nan 242 241 243 244 245 245 244 247 252 253 254 257 258 254 256 262 269 274 276 280 283 285 286 287 287 286 285 289 292 292 294 294 293 291 292 295 297 297 295 295 297 298 298 nan nan nan nan nan nan 300 301 304 301 293 289 289 285 281 281 283
nan nan nan 217 219 nan 206 nan nan nan nan nan nan nan nan nan nan 242 nan nan nan nan 250 248 248 246 245 249 245 244 241 241 242 243 nan 248 251 255 258 258 260 263 269 274 279 279 281 282 284 286 287 287 287 287 289 290 292 293 293 291 291 293 295 296 295 293 293 296 299 nan nan nan nan nan nan nan 304 304 304 nan nan 292 291 285 284 287 287
nan nan nan 211 nan 215 214 nan nan nan nan nan nan 230 nan nan nan nan nan nan nan nan nan nan 247 250 250 247 242 240 241 242 nan nan 245 nan nan 254 259 262 266 273 276 277 278 279 279 280 282 284 285 286 287 288 288 288 291 292 291 291 293 295 294 294 294 293 294 294 294 nan nan nan 301 298 301 306 308 nan nan 300 291 285 280 278 284 298 305
nan nan nan nan nan nan nan nan nan nan nan nan nan 225 nan nan nan nan nan nan nan nan nan nan nan nan nan nan nan 249 nan nan nan nan nan nan nan 262 264 268 272 274 279 280 280 280 279 279 282 282 283 282 284 285 286 288 290 291 290 291 292 292 292 292 293 294 296 296 nan nan nan nan 299 305 nan nan nan nan 320 307 288 272 271 290 302 304 nan
nan nan nan nan nan nan nan nan nan nan nan nan nan nan nan nan nan nan nan nan nan nan nan nan nan nan nan nan nan nan nan nan nan nan nan nan nan 258 264 269 273 274 278 283 287 287 287 286 283 283 283 284 284 284 286 290 290 289 289 290 292 292 291 292 294 297 300 304 299 295 297 nan nan nan nan nan nan nan nan nan nan nan 291 300 nan nan nan
nan nan nan nan nan nan nan nan nan nan nan nan nan nan nan nan 237 nan nan nan nan nan nan nan nan nan nan nan nan nan nan 253 248 nan nan nan 255 257 256 261 273 281 283 286 290 292 293 290 288 286 287 286 285 286 291 294 292 289 289 291 289 292 295 297 nan nan 300 299 300 300 nan nan nan nan nan nan nan 302 nan nan nan nan nan nan nan nan 303
nan nan nan nan nan nan nan nan nan nan nan nan nan nan nan nan nan nan 241 238 nan nan nan nan nan nan nan nan nan nan nan nan nan nan 252 258 260 259 261 nan 264 272 281 286 nan nan nan nan 289 289 289 290 291 292 293 294 293 292 293 292 293 296 nan nan nan nan nan nan nan nan nan nan nan nan nan nan nan nan nan nan nan nan nan nan nan nan 303
nan nan nan nan nan nan nan nan nan nan nan nan nan nan nan nan nan nan nan nan nan nan nan nan nan nan nan nan nan nan nan nan 254 256 258 260 261 263 266 268 274 278 279 283 nan nan 291 290 289 289 291 292 292 293 nan nan 293 293 294 nan nan nan nan nan nan nan nan nan nan nan nan nan nan nan nan nan nan nan nan nan nan nan nan nan nan nan nan
nan nan nan nan nan nan nan nan nan nan nan nan nan nan nan nan nan nan nan nan nan nan nan nan nan nan nan nan nan nan nan nan nan nan 257 261 265 264 268 272 275 277 279 282 283 284 284 285 287 287 290 290 289 288 nan nan nan nan nan nan nan nan nan nan nan nan nan nan nan nan nan nan nan nan nan nan nan nan nan nan nan nan nan nan nan nan nan
nan nan nan nan nan nan nan nan nan nan nan nan nan nan nan nan nan nan nan nan nan nan nan nan nan nan nan nan nan nan nan nan nan nan nan 258 259 265 270 272 274 277 280 281 282 283 285 285 285 286 286 282 279 282 284 288 nan nan nan nan nan nan nan nan nan nan nan nan nan nan nan nan nan nan nan nan nan nan nan nan nan 302 nan nan nan nan nan
nan nan nan nan nan nan nan nan nan nan nan nan nan nan nan nan nan nan nan nan nan nan nan nan nan nan nan nan nan nan nan nan nan nan nan nan nan nan 271 277 277 276 278 281 284 285 285 286 286 284 281 281 280 279 280 287 291 nan nan nan nan nan nan nan nan nan nan nan nan nan nan nan nan nan nan nan nan nan nan nan 307 302 nan nan nan nan nan
nan nan nan nan nan nan nan nan nan nan nan nan nan nan nan nan nan nan nan nan nan nan nan nan nan nan nan nan nan nan nan nan nan nan nan nan nan nan nan 277 280 281 282 282 283 285 287 287 285 285 287 289 287 287 288 290 nan nan nan nan nan nan nan nan nan nan nan nan nan nan nan nan nan nan nan nan nan nan nan 308 nan nan nan nan nan nan nan
nan nan nan nan nan nan nan nan nan nan nan nan nan nan nan nan nan nan nan nan nan nan nan nan nan nan nan nan nan nan nan nan nan nan nan nan nan nan nan nan nan 281 281 283 285 287 288 287 287 287 nan nan 287 288 289 nan nan nan nan nan nan nan nan 290 nan nan nan nan nan nan nan nan nan nan nan nan nan 306 nan nan nan nan nan nan nan nan nan
nan nan nan nan nan nan nan nan nan nan nan nan nan nan nan nan nan nan nan nan nan nan nan nan nan nan nan nan nan nan nan nan nan nan nan nan nan nan nan nan nan nan 279 282 285 288 289 288 288 288 nan nan 289 289 nan nan nan nan nan nan nan nan nan nan nan nan nan nan nan nan nan nan nan nan nan 302 302 303 302 nan nan nan nan nan nan nan nan
nan nan nan nan nan nan nan nan nan nan nan nan nan nan nan nan nan nan nan nan nan nan nan nan nan nan nan nan nan nan nan nan nan nan nan nan nan nan nan nan nan nan 275 281 285 287 288 288 288 nan nan nan 288 288 nan nan nan nan nan nan nan nan nan nan nan nan nan nan nan 295 296 297 299 299 299 299 302 303 303 303 302 nan nan nan nan nan nan
nan nan nan nan nan nan nan nan nan nan nan nan nan nan nan nan nan nan nan nan nan nan nan nan nan nan nan nan nan nan nan nan nan nan nan nan nan nan nan nan nan nan nan 284 283 282 282 282 282 nan nan nan nan nan nan nan nan nan nan nan nan nan nan nan nan nan nan nan nan nan nan nan nan 299 300 302 303 303 302 302 302 301 nan nan nan nan nan
nan nan nan nan nan nan nan nan nan nan nan nan nan nan nan nan nan nan nan nan nan nan nan nan nan nan nan nan nan nan nan nan nan nan nan nan nan nan nan nan nan nan nan nan 276 278 277 278 279 nan nan nan nan nan nan nan nan nan nan 286 nan 282 282 nan nan nan nan nan nan nan nan nan nan 302 303 304 304 304 304 304 303 nan nan nan nan nan nan
nan nan nan nan nan nan nan nan nan nan nan nan nan nan nan nan nan nan nan nan nan nan nan nan nan nan nan nan nan nan nan nan nan nan nan nan nan nan nan nan nan nan nan nan nan 280 282 284 nan nan nan nan nan nan nan nan nan nan nan nan 280 279 nan nan nan nan 284 284 285 nan nan nan nan nan nan nan 299 nan nan nan nan nan nan nan nan nan nan
nan nan nan nan nan nan nan nan nan nan nan nan nan nan nan nan nan nan nan nan nan nan nan nan nan nan nan nan nan nan nan nan nan nan nan nan nan nan nan nan nan nan nan nan nan nan nan 283 nan nan nan nan 283 282 281 282 284 287 288 nan nan nan nan 283 283 283 283 284 285 nan nan nan nan nan nan nan nan nan nan nan nan nan nan nan nan nan nan
nan nan nan nan nan nan nan nan nan nan nan nan nan nan nan nan nan nan nan nan nan nan nan nan nan nan nan nan nan nan nan nan nan nan nan nan nan nan nan nan nan nan nan nan nan nan 274 nan nan nan nan 282 nan 282 284 284 285 nan nan 285 285 284 284 283 284 284 285 286 288 291 nan nan nan nan nan nan nan nan nan nan nan nan nan nan nan nan nan
nan nan nan nan nan nan nan nan nan nan nan nan nan nan nan nan nan nan nan nan nan nan nan nan nan nan nan nan nan nan nan nan nan nan nan nan nan nan nan nan nan nan nan nan nan nan nan 282 283 283 283 285 286 286 285 285 285 285 nan 280 280 282 280 281 285 285 283 286 nan nan nan nan nan nan nan nan nan nan nan nan nan nan nan nan nan nan nan
nan nan nan nan nan nan nan nan nan nan nan nan nan nan nan nan nan nan nan nan nan nan nan nan nan nan nan nan nan nan nan nan nan nan nan nan nan nan nan nan nan nan nan nan nan nan 277 281 281 280 280 nan nan 276 279 nan nan nan nan nan 278 nan 278 281 282 281 nan nan nan nan nan nan nan nan nan nan nan nan nan nan nan nan nan nan nan nan nan
nan nan nan nan nan nan nan nan nan nan nan nan nan nan nan nan nan nan nan nan nan nan nan nan nan nan nan nan nan nan nan nan nan nan nan nan nan nan nan nan nan 277 278 279 nan nan nan 276 nan nan nan nan nan nan 272 276 nan nan nan nan nan nan nan nan nan nan nan nan nan nan nan nan nan nan nan nan nan nan nan nan nan nan nan nan nan nan nan
nan nan nan nan nan nan nan nan nan nan nan nan nan nan nan nan nan nan nan nan nan nan nan nan nan nan nan nan nan nan nan nan nan nan nan nan nan nan nan nan nan nan 282 nan nan nan nan nan nan nan nan nan nan nan 271 nan nan nan nan nan nan nan nan nan nan nan nan nan nan nan nan nan nan nan nan nan nan nan nan nan nan nan nan nan nan nan nan
nan nan nan nan nan nan nan nan nan nan nan nan nan nan nan nan nan nan nan nan nan nan nan nan nan nan nan nan nan nan nan nan nan nan nan nan nan nan nan nan nan nan nan nan nan nan nan nan nan nan nan nan nan nan 269 nan nan nan nan nan nan nan nan nan nan nan nan nan nan nan nan nan nan nan nan nan nan nan nan nan nan nan nan nan nan nan nan
nan nan nan nan nan nan nan nan nan nan nan nan nan nan nan nan nan nan nan nan nan nan nan nan nan nan nan nan nan nan nan nan nan nan nan nan nan nan nan nan nan nan nan nan nan nan nan nan nan nan nan nan nan nan nan nan nan nan nan nan nan nan nan nan nan nan nan nan nan nan nan nan nan nan nan nan nan nan nan nan nan nan nan nan nan nan nan
nan nan nan nan nan nan nan nan nan nan nan nan nan nan nan nan nan nan nan nan nan nan nan nan nan nan nan nan nan nan nan nan nan nan nan nan nan nan nan nan nan nan nan nan nan nan nan nan nan nan nan nan nan nan nan nan nan nan nan nan nan nan nan nan nan nan nan nan nan nan nan nan nan nan nan nan nan nan nan nan nan nan nan nan nan nan nan
nan nan nan nan nan nan nan nan nan nan nan nan nan nan nan nan nan nan nan nan nan nan nan nan nan nan nan nan nan nan nan nan nan nan nan nan nan nan nan nan nan nan 305 nan nan nan nan nan nan nan nan nan nan nan nan nan nan nan nan nan nan nan nan nan nan nan nan nan nan nan nan nan nan nan nan nan nan nan nan nan nan nan nan nan nan nan nan
nan nan nan nan nan nan nan nan nan nan nan nan nan nan nan nan nan nan nan nan nan nan nan nan nan nan nan nan nan nan nan nan nan nan nan nan nan nan nan nan nan 303 306 nan nan nan nan nan nan nan nan nan nan nan nan nan nan nan nan nan nan nan nan nan nan nan nan nan nan nan nan nan nan nan nan nan nan nan nan nan nan nan nan nan nan nan nan
nan nan nan nan nan nan nan nan nan nan nan nan nan nan nan nan nan nan nan nan nan nan nan nan nan nan nan nan nan nan nan nan nan nan nan nan nan nan nan nan nan 297 nan nan nan nan nan nan nan nan nan nan nan nan nan nan nan nan nan nan nan nan nan nan nan nan nan nan nan nan nan nan nan nan nan nan nan nan nan nan nan nan nan nan nan nan nan
nan nan nan nan nan nan nan nan nan nan nan nan nan nan nan nan nan nan nan nan nan nan nan nan nan nan nan nan nan nan nan nan nan nan nan nan nan nan nan nan nan nan nan nan nan nan nan nan nan nan nan nan nan nan nan nan nan nan nan nan nan nan nan nan nan nan nan nan nan nan nan nan nan nan nan nan nan nan nan nan nan nan nan nan nan nan nan
nan nan nan nan nan nan nan nan nan nan nan nan nan nan nan nan nan nan nan nan nan nan nan nan nan nan nan nan nan nan nan nan nan nan nan nan nan nan nan 301 304 307 303 nan nan nan nan nan nan nan nan nan nan nan nan nan nan nan nan nan nan nan nan nan nan nan nan nan nan nan nan nan nan nan nan nan nan nan nan nan nan nan nan nan nan nan nan
nan nan nan nan nan nan nan nan nan nan nan nan nan nan nan nan nan nan nan nan nan nan nan nan nan nan nan nan nan nan nan nan nan nan nan nan nan nan nan 297 300 306 305 nan nan nan nan nan nan nan nan nan nan nan nan nan nan nan nan nan nan nan nan nan nan nan nan nan nan nan nan nan nan nan nan nan nan nan nan nan nan nan nan nan nan nan nan
nan nan nan nan nan nan nan nan nan nan nan nan nan nan nan nan nan nan nan nan nan nan nan nan nan nan nan nan nan nan nan nan nan nan nan nan nan nan nan nan 298 304 297 nan nan nan nan nan nan nan nan nan nan nan nan nan nan nan nan nan nan nan nan nan nan nan nan nan nan nan nan nan nan nan nan nan nan nan nan nan nan nan nan nan nan nan nan
nan nan nan nan nan nan nan nan nan nan nan nan nan nan nan nan nan nan nan nan nan nan nan nan nan nan nan nan nan nan nan nan nan nan nan nan nan nan nan nan nan 294 nan nan nan nan nan nan nan nan nan nan nan nan nan nan nan nan nan nan nan nan nan nan nan nan nan nan nan nan nan nan nan nan nan nan nan nan nan nan nan nan nan nan nan nan nan
nan nan nan nan nan nan nan nan nan nan nan nan nan nan nan nan nan nan nan nan nan nan nan nan nan nan nan nan nan nan nan nan nan nan nan nan nan nan nan nan nan 294 nan nan nan nan nan nan nan nan nan nan nan nan nan nan nan nan nan nan nan nan nan nan nan nan nan nan nan nan nan nan nan nan nan nan nan nan nan nan nan nan nan nan nan nan nan
nan nan nan nan nan nan nan nan nan nan nan nan nan nan nan nan nan nan nan nan nan nan nan nan nan nan nan nan nan nan nan nan nan nan 279 281 nan nan nan nan nan nan nan nan nan nan nan nan nan nan nan nan nan nan nan nan nan nan nan nan nan nan nan nan nan nan nan nan nan nan nan nan nan nan nan nan nan nan nan nan nan nan nan nan nan nan nan